TimeMST,TemperatureF,Dew PointF,Humidity,Sea Level PressureIn,VisibilityMPH,Wind Direction,Wind SpeedMPH,Gust SpeedMPH,PrecipitationIn,Events,Conditions,WindDirDegrees,DateUTC
12:00 AM,-5.8,-11.2,77,30.00,30.0,East,6.9,-,N/A,,Partly Cloudy,80,2012-11-14 07:00:00
1:00 AM,-9.4,-14.8,77,29.98,30.0,SE,3.5,-,N/A,,Partly Cloudy,140,2012-11-14 08:00:00
2:00 AM,-16.6,-22.0,76,29.99,30.0,Calm,Calm,-,N/A,,Partly Cloudy,0,2012-11-14 09:00:00
3:00 AM,-16.6,-22.0,76,29.97,30.0,NE,3.5,-,N/A,,Partly Cloudy,50,2012-11-14 10:00:00
4:00 AM,-18.4,-23.8,76,29.96,30.0,Calm,Calm,-,N/A,,Partly Cloudy,0,2012-11-14 11:00:00
5:00 AM,-20,-26,59,29.95,28,Calm,Calm,,,,Scattered Clouds,,2012-11-14 12:00:00
5:00 AM,-20.2,-25.6,76,29.95,30.0,Calm,Calm,-,N/A,,Partly Cloudy,0,2012-11-14 12:00:00
6:00 AM,-23.8,-31.0,69,29.96,30.0,NW,4.6,-,N/A,,Partly Cloudy,320,2012-11-14 13:00:00
7:00 AM,-22.0,-29.2,69,29.97,30.0,North,4.6,-,N/A,,Partly Cloudy,350,2012-11-14 14:00:00
8:00 AM,-18.4,-23.8,76,29.98,30.0,Calm,Calm,-,N/A,,Ice Crystals,0,2012-11-14 15:00:00
9:00 AM,-23.8,-31.0,69,29.99,30.0,Calm,Calm,-,N/A,,Ice Crystals,0,2012-11-14 16:00:00
10:00 AM,-20.2,-27.4,69,30.00,20.0,Calm,Calm,-,N/A,,Ice Crystals,0,2012-11-14 17:00:00
11:00 AM,-15,-20,64,30.02,28,East,5.8,,,Snow,Snow,90,2012-11-14 18:00:00
11:00 AM,-14.8,-20.2,77,30.02,30.0,East,5.8,-,N/A,,Ice Crystals,100,2012-11-14 18:00:00
12:00 PM,-13.0,-18.4,77,30.04,30.0,SSE,2.3,-,N/A,,Ice Crystals,150,2012-11-14 19:00:00
1:00 PM,-11.2,-16.6,77,30.05,30.0,Calm,Calm,-,N/A,,Ice Crystals,0,2012-11-14 20:00:00
2:00 PM,-11.2,-16.6,77,30.06,30.0,SSE,2.3,-,N/A,,Ice Crystals,160,2012-11-14 21:00:00
3:00 PM,-11.2,-16.6,77,30.07,30.0,Calm,Calm,-,N/A,,Ice Crystals,0,2012-11-14 22:00:00
4:00 PM,-14.8,-20.2,77,30.09,30.0,Calm,Calm,-,N/A,,Ice Crystals,0,2012-11-14 23:00:00
5:00 PM,-17,-23,60,30.10,28,West,4.6,,,Snow,Snow,280,2012-11-15 00:00:00
5:00 PM,-16.6,-23.8,70,30.10,30.0,West,4.6,-,N/A,,Ice Crystals,280,2012-11-15 00:00:00
6:00 PM,-16.6,-22.0,76,30.11,30.0,South,5.8,-,N/A,,Ice Crystals,190,2012-11-15 01:00:00
7:00 PM,-20.2,-27.4,69,30.13,30.0,South,4.6,-,N/A,,Ice Crystals,170,2012-11-15 02:00:00
8:00 PM,-20.2,-25.6,76,30.13,30.0,East,5.8,-,N/A,,Ice Crystals,90,2012-11-15 03:00:00
9:00 PM,-22.0,-29.2,69,30.13,30.0,NE,3.5,-,N/A,,Ice Crystals,40,2012-11-15 04:00:00
10:00 PM,-22.0,-29.2,69,30.14,30.0,East,5.8,-,N/A,,Ice Crystals,90,2012-11-15 05:00:00
11:00 PM,-16,-22,62,30.13,28,South,3.5,,,Snow,Snow,170,2012-11-15 06:00:00
11:00 PM,-16.6,-22.0,76,30.13,30.0,SSE,3.5,-,N/A,,Ice Crystals,160,2012-11-15 06:00:00